Regional Weather Roundup
Issued by NWS Huntsville, AL

Home | Current Version | Previous Version | Text Only | Print | Product List | Glossary On
Versions: 1 2 3 4 5 6 7 8 9 10 11 12 13 14 15 16 17 18 19 20 21 22 23 24 25 26 27 28 29 30 31 32 33 34 35 36 37 38 39 40 41 42 43 44 45 46 47 48 49 50
000
ASUS44 KHUN 281210
RWRHUN

WEATHER ROUNDUP FOR THE TENNESSEE VALLEY
NATIONAL WEATHER SERVICE HUNTSVILLE AL
600 AM CST WED JAN 28 2015

ALZ001>004-281300-
NORTHWEST ALABAMA

CITY           SKY/WX    TMP DP  RH WIND       PRES   REMARKS
SHOALS AIRPORT CLEAR     31  25  78 CALM      30.29R
6HR MIN TEMP:  31; 6HR MAX TEMP:  37;

$$

ALZ005>007-016-281300-
NORTH CENTRAL ALABAMA

CITY           SKY/WX    TMP DP  RH WIND       PRES   REMARKS
DECATUR AP     PTCLDY    34  26  72 NE7       30.29R WCI  28
6HR MIN TEMP:  31; 6HR MAX TEMP:  36;

HUNTSVILLE AP  PTCLDY    33  26  75 N6        30.27R WCI  28
6HR MIN TEMP:  33; 6HR MAX TEMP:  39;

HUN NWS/UAH      N/A     33  24  68 N3          N/A
MERIDIANVILLE  CLEAR     32  23  69 CALM      30.26R
REDSTONE ARSN  CLEAR     32  25  76 NE7       30.26R WCI  26
VINEMONT AP    FAIR      29  25  86 N3        30.26R
$$

ALZ008>010-281300-
NORTHEAST ALABAMA

CITY           SKY/WX    TMP DP  RH WIND       PRES   REMARKS
ALBERTVILLE    PTCLDY    32  30  93 NE9       30.22R WCI  24
FORT PAYNE     CLOUDY    32  23  69 NE6       30.25R WCI  26
SCOTTSBORO AP  CLOUDY    34  25  69 NE6       30.28R WCI  29
VALLEY HEAD      N/A     32 N/A N/A MISG        N/A
$$

TNZ076-096-097-281300-
SOUTHEASTERN MIDDLE TENNESSEE

CITY           SKY/WX    TMP DP  RH WIND       PRES   REMARKS
TULLAHOMA      CLOUDY    30  23  74 NE7       30.26R WCI  23
WINCHESTER     CLOUDY    30  25  80 NE7       30.27R WCI  23
$$

...SURROUNDING SITES...

CITY           SKY/WX    TMP DP  RH WIND       PRES   REMARKS
ATLANTA        CLEAR     32  24  72 NW12      30.20R WCI  23
ANNISTON       CLEAR     34  26  72 CALM      30.25R
BIRMINGHAM     CLEAR     26  23  88 N3        30.27R
CHATTANOOGA    CLOUDY    33  23  66 NE10      30.29R WCI  25
CORINTH        FAIR      28  25  86 E5        30.26S WCI  23
DALTON         FAIR      32  27  80 CALM      30.26R
GADSDEN        CLEAR     28  21  74 CALM      30.26R
GOLDEN TRNGL   CLEAR     32  28  86 CALM      30.26R
HALEYVILLE       N/A     26  25  96 CALM      30.27R
JACKSON TN     CLEAR     29  25  85 E6        30.27R WCI  23
LEWISBURG      FAIR      28  24  85 NE3       30.27R
MEMPHIS        CLEAR     36  28  73 E7        30.26R WCI  30
MURFREESBORO   CLOUDY    31  26  81 NE6       30.30R WCI  25
NASHVILLE      CLOUDY    33  25  72 E9        30.31R WCI  25
OXFORD MS      FAIR      32  27  80 E3        30.28R
ROME           CLOUDY    35  26  69 N14       30.25R WCI  26
SAVANNAH         N/A     25  23  93 CALM      30.28R
TUPELO         CLEAR     31  27  85 CALM      30.27R
TUSCALOOSA     CLEAR     30  27  88 NE5       30.28R WCI  25
$$

...GULF COAST WEATHER...

CITY           SKY/WX    TMP DP  RH WIND       PRES   REMARKS
GULFPORT       CLEAR     41  36  82 NE3       30.24R
PASCAGOULA     CLEAR     37  35  92 CALM      30.25R
MOBILE         CLEAR     40  33  76 NE7       30.24R
GULF SHORES    SUNNY     37  35  93 CALM      30.24R
PENSACOLA      CLEAR     39  36  89 N5        30.22R
DESTIN         CLEAR     45  36  70 N7        30.22R
PANAMA CITY    CLEAR     44  35  70 N6        30.22R
APPALACHICOLA  CLEAR     42  34  73 N3        30.20R
$$




USA.gov is the U.S. government's official web portal to all federal, state and local government web resources and services.